User: anonymous   Login
Location: Unspecified
(0.0000°N, 0.0000°E)
Time: 09:12:02
(UTC+00:00)
Language:

Diademe D-1D - Orbit

View from above orbital plane
View from above orbital plane
View from above satellite
View from above satellite

Ground track
Ground track

The orbit data is extracted from the following two-line orbital elements,

1  2680U 67014A   18109.88142877 +.00000024 +00000-0 +48205-4 0  9997
2  2680 039.4409 349.1765 0714380 029.1964 334.6820 13.37882970476401
Epoch (UTC): 19 April 2018 21:09:15
Eccentricity: 0.0714380
inclination: 39.4409°
perigee height: 582 km
apogee height: 1652 km
right ascension of ascending node: 349.1765°
argument of perigee: 29.1964°
revolutions per day: 13.37882970
mean anomaly at epoch: 334.6820°
orbit number at epoch: 47640

The dashed part of the orbit path shows where the satellite is in the earth's shadow,  

DLR